Location: Ch�teau-Arnoux
(44.0814°N, 6.0027°E)
Time: 10:17:11
(UTC+00:00)

SL-08 R/B - Pass Details

Date: 15 November 2019
Orbit: 943 x 1008 km, 82.9° (Epoch: 05 December)

Event Time Altitude Azimuth Distance (km) Brightness Sun altitude
Rises 05:39:24 0° 195° (SSW) 3,631 7.5 -9.4°
Reaches altitude 10° 05:41:55 10° 198° (SSW) 2,681 6.8 -9.0°
Maximum altitude 05:48:00 66° 280° (W) 1,032 4.4 -7.9°
Drops below altitude 10° 05:54:04 10° 3° (N) 2,674 6.6 -6.9°
Sets 05:56:35 0° 6° (N) 3,621 7.3 -6.5°
